GSAT0216 (PRN E25)

Last updated on Oct. 30, 2020, 5:57 a.m. UTC

1 43056U 17079B   20303.15911696 -.00000029  00000-0  00000-0 0  9990
2 43056  56.1694 278.1256 0005966 275.4280  84.4745  1.70473937 17906
UTC
Height (km)
Latitude
Longitude
Inclination
Orbital Period
UTC large
Height (km)
Speed (km/s)
/
Latitude / Longitude
Inclination (degrees)
Orbital Period (minutes)
Azimuth
Elevation
Range (km)
Doppler Factor
iOS Compass Heading
iOS Angle

Next 30 passes for location: Hong Kong

Rise time Rise Azimuth (degrees) Set time Set Azimuth (degrees) Duration Max altitude (degrees)

No matching passes for this satellites